Regional Weather Roundup
Issued by NWS

Home | Current Version | Previous Version | Graphics & Text | Print | Product List | Glossary On
Versions: 1 2 3 4 5 6 7 8 9 10 11 12 13 14 15 16 17 18 19 20 21 22 23 24 25 26 27 28 29 30 31 32 33 34 35 36 37 38 39 40 41 42 43 44 45 46 47 48 49 50
000
ASUS43 KMKX 221121
RWRWI

WISCONSIN REGIONAL WEATHER ROUNDUP
NATIONAL WEATHER SERVICE MILWAUKEE/SULLIVAN WI
600 AM CDT FRI SEP 22 2017

NOTE: "FAIR" INDICATES FEW OR NO CLOUDS BELOW 12,000 FEET WITH NO
SIGNIFICANT WEATHER AND/OR OBSTRUCTIONS TO VISIBILITY.

WIZ001-002-006>008-014>016-023>028-221200-
NORTHWEST WISCONSIN

CITY           SKY/WX    TMP DP  RH WIND       PRES   REMARKS
SUPERIOR ARPT  CLOUDY    59  59  99 NE6       29.86S
ASHLAND        CLOUDY    70  66  87 S7        29.87F
HAYWARD        CLEAR     69  65  86 CALM      29.89F
SIREN          CLEAR     73  66  80 SE9       29.84F
CUMBERLAND     PTCLDY    68  64  88 SE6       29.88F
RICE LAKE      MOCLDY    68  66  92 SE7       29.90F
CHETEK         PTCLDY    68  67  96 SE6       29.90F
LADYSMITH      CLEAR     70  67  89 SE5       29.94F
EAU CLAIRE     CLOUDY    73  68  84 S9        29.90S
MENOMONIE      PTCLDY    69  68  94 E5        29.89F
NEW RICHMOND   CLEAR     73  67  79 SE12G18   29.85F
OSCEOLA        MOCLDY    74  68  80 SE10      29.85F
$$

WIZ003>005-009-010-017-018-221200-
NORTH CENTRAL WISCONSIN

CITY           SKY/WX    TMP DP  RH WIND       PRES   REMARKS
MANITOWISH WTR CLOUDY    66  66 100 S5        29.97S
ARBOR VITAE    CLEAR     69  67  91 S7        29.98S
WOODRUFF       CLEAR     69  67  91 S7        29.98S
RHINELANDER    CLEAR     68  67  96 S3        30.00S
EAGLE RIVER    CLEAR     67  66  99 S6        29.98F
LAND O LAKES   CLEAR     67  65  93 S3        30.00F
PHILLIPS       PTCLDY    68  67  97 S5        29.95F
TOMAHAWK       CLEAR     65  63  94 CALM      29.98F
MEDFORD        CLEAR     65  64  95 S8        29.97F
MERRILL        MOCLDY    69  67  96 S5        29.99S
$$

WIZ029-030-035-036-043>047-221200-
CENTRAL WISCONSIN

CITY           SKY/WX    TMP DP  RH WIND       PRES   REMARKS
WAUSAU         PTCLDY    67  65  93 SE6       29.98S
MOSINEE        CLOUDY    66  66 100 SE6       30.00F
MARSHFIELD     CLEAR     68  64  87 S6        29.98S
STEVENS POINT  CLEAR     62  62 100 CALM      30.01R
WAUPACA        CLEAR     65  65  98 CALM      30.01S FOG
WAUTOMA        CLEAR     62  61  96 CALM      30.01R
WISC RAPIDS    MOCLDY    68  66  93 S3        30.00S
CAMP DOUGLAS   CLEAR     70  69  95 SE6       29.97S
$$

WIZ011>013-019>022-031-037>040-048>050-221200-
NORTHEAST WISCONSIN

CITY           SKY/WX    TMP DP  RH WIND       PRES   REMARKS
ANTIGO         PTCLDY    66  65  99 S7        30.02S
SHAWANO        FOG       65  64  95 CALM      30.00F VSB 1
OCONTO         PTCLDY    61  60  98 CALM      30.01R
STURGEON BAY   CLEAR     68  67  96 S6        30.00S FOG
GREEN BAY      CLEAR     66  66 100 S5        30.01S FOG
MANITOWOC      FOG       66  65  96 CALM      30.03S VSB 1/2
APPLETON       PTCLDY    68  68 100 VRB5      30.00S
CLINTONVILLE   MOCLDY    63  61  94 CALM      30.01S
OSHKOSH        CLEAR     68  67  96 S8        30.01S
$$

WIZ032>034-041-042-053>061-221200-
SOUTHWEST WISCONSIN

CITY           SKY/WX    TMP DP  RH WIND       PRES   REMARKS
LA CROSSE      CLEAR     75  69  81 S12       29.93R
SPARTA         CLEAR     74  67  78 S5        29.96S
VIROQUA        CLEAR     72  69  92 S9        29.98S
BOSCOBEL       CLEAR     74  68  81 S5        29.97S
PRAIRIE DU CHI CLEAR     77  66  68 S6        29.96S
PLATTEVILLE    CLEAR     70  70  99 S7        30.01S
$$

WIZ056-057-062-063-064-067-068-221200-
SOUTH CENTRAL WISCONSIN

CITY           SKY/WX    TMP DP  RH WIND       PRES   REMARKS
REEDSBURG      CLEAR     72  68  89 S5        29.98S
BARABOO/DELLS  CLEAR     72  65  80 S9        29.99F
LONE ROCK      CLEAR     74  69  85 SE5       29.99S
MINERAL POINT  CLEAR     70  70 100 S6        30.01S
MADISON        PTCLDY    71  67  87 S3        30.01S
MIDDLETON      CLEAR     73  68  84 SW5       30.02S
WATERTOWN      CLOUDY    69  69 100 CALM      30.03R
MONROE         PTCLDY    68  64  88 S8        30.03S
JANESVILLE     CLEAR     72  68  88 S6        30.03R
$$

WIZ051-052-058>065-066-070>072-221200-
SOUTHEAST WISCONSIN

CITY           SKY/WX    TMP DP  RH WIND       PRES   REMARKS
MILWAUKEE      PTCLDY    73  70  90 S6        30.04S FOG
WAUKESHA       CLEAR     70  66  88 S5        30.06R
MILWAUKEE/TIMM CLEAR     64  59  82 S5        30.05S HAZE
RACINE         CLEAR     70  69  97 S3        30.06S FOG
BURLINGTON     FOG       61  61 100 CALM      30.05S VSB 1/2
KENOSHA        CLEAR     71  68  90 S6        30.05S
FOND DU LAC    CLEAR     71  66  84 S6        30.02S
SHEBOYGAN      PTCLDY    65  65 100 S5        30.03S FOG
WEST BEND        N/A     61  61 100 CALM      30.04S FOG
JUNEAU         CLEAR     69  67  92 S5        30.04S
$$

LSZ147-162-221200-
LAKE SUPERIOR

STATION/POSITION TIME  TEMP    WIND        PRES    WAVE
                       AIR SEA DIR/SP/G            HT/PER
                 (UTC) (F)     (DEG/KT/KT) (MB)    (FT/S)
W MID LAKE BUOY  1050   59 55  140/  6/  6 1011.5F   1/ 4
DEVILS ISLAND    1100   63     100/  7/  8 1011.1F
PORT WING        0900   61     340/  3/ 22 1011.9
SAXON HARBOR     1040   75     190/  6/ 13 1011.2S
$$

LMZ867-665-643>646-221200-
LAKE MICHIGAN

STATION/POSITION TIME  TEMP    WIND        PRES    WAVE
                       AIR SEA DIR/SP/G            HT/PER
                 (UTC) (F)     (DEG/KT/KT) (MB)    (FT/S)
S GREEN BAY BUOY 1100   69 67  190/  6/  6 1015.9
N MID LAKE BUOY  1050   68 66  180/ 10/ 12 1016.9R   1
NORTHPORT PIER   1040   68     150/  5/  7 1015.9S
KEWAUNEE LAKESHO 1054   63     180/  3/  4 1015.9R
SHEBOYGAN LAKESH 1100   69     170/  9/  9 1016.6R
PORT WASHINGTON  1040   68      CALM  /  1 1017.9R
ATWATER BUOY     1009   68 66  170/  6/  6 1017.3R
MILWAUKEE LAKESH 1100   70     140/  3/  4   N/A
S MID LAKE BUOY  1050   71 69  200/  6/  8 1017.6R   1
KENOSHA   LAKESH 1100   73     170/  3/  4 1017.3
$$

TC  - TEMPERATURE IN CELSIUS
VSB - VISIBILITY IN STATUTE MILES
WCI - WIND CHILL INDEX
HX  - HEAT INDEX





USA.gov is the U.S. government's official web portal to all federal, state and local government web resources and services.